This is the latest recevied weather packets stored in our database for station/object KJ5BMY-13. If no packets are shown the sender has not sent any weather packets the latest 10 day(s).
| Time | Temp. | Humidity | Pressure | Rain* | Wind** | Luminosity | Snow |
|---|---|---|---|---|---|---|---|
| 1777745801 | 24.44° C | 33% | 1023.5 hPa | 0 mm | - | - | - |
| 1777745499 | 25° C | 33% | 1023.6 hPa | 0 mm | - | - | - |
| 1777745196 | 25.56° C | 32% | 1023.6 hPa | 0 mm | - | - | - |
| 1777744893 | 25.56° C | 30% | 1023.6 hPa | 0 mm | - | - | - |
| 1777744592 | 25.56° C | 35% | 1023.7 hPa | 0 mm | - | - | - |
| 1777744293 | 25° C | 34% | 1023.9 hPa | 0 mm | - | - | - |
| 1777743990 | 25° C | 32% | 1023.8 hPa | 0 mm | - | - | - |
| 1777743686 | 25° C | 31% | 1024 hPa | 0 mm | - | - | - |
| 1777743384 | 25° C | 34% | 1024.2 hPa | 0 mm | - | - | - |
| 1777743082 | 25° C | 32% | 1024.1 hPa | 0 mm | - | - | - |
| 1777742779 | 24.44° C | 31% | 1024.3 hPa | 0 mm | - | - | - |
| 1777742475 | 24.44° C | 30% | 1024.4 hPa | 0 mm | - | - | - |
| 1777742171 | 24.44° C | 32% | 1024.3 hPa | 0 mm | - | - | - |
| 1777741868 | 24.44° C | 37% | 1024.4 hPa | 0 mm | - | - | - |
| 1777741565 | 25° C | 30% | 1024.4 hPa | 0 mm | - | - | - |
| 1777741262 | 24.44° C | 34% | 1024.2 hPa | 0 mm | - | - | - |
| 1777740958 | 24.44° C | 32% | 1024.5 hPa | 0 mm | - | - | - |
| 1777740656 | 25° C | 30% | 1024.5 hPa | 0 mm | - | - | - |
| 1777740351 | 23.89° C | 31% | 1024.5 hPa | 0 mm | - | - | - |
| 1777740049 | 25° C | 33% | 1024.5 hPa | 0 mm | - | - | - |
| 1777739744 | 25° C | 34% | 1024.4 hPa | 0 mm | - | - | - |
| 1777739442 | 25° C | 33% | 1024.5 hPa | 0 mm | - | - | - |
| 1777739138 | 25° C | 36% | 1024.3 hPa | 0 mm | - | - | - |
| 1777738836 | 25° C | 33% | 1024.5 hPa | 0 mm | - | - | - |
| 1777738532 | 24.44° C | 33% | 1024.3 hPa | 0 mm | - | - | - |
* Rain latest hour (hover to see other rain measurements)
** Current wind speed in m/s (hover to see current wind gust speed)